Tracking 31029 objects as of 15-Jul-2025
HD Live streaming from Space Station
objects crossing your sky now

CZ-4B DEB

Track CZ-4B DEB now!
10-day predictions


NORAD ID: 43660
Int'l Code: 2018-081D
Perigee: 924.5 km
Apogee: 943.7 km
Inclination: 99.1 °
Period: 103.6 minutes
Semi major axis: 7305 km
RCS: Unknown
Launch date: October 24, 2018
Source: People's Republic of China (PRC)
Launch site: Taiyaun Space Center, China (TSC)

Note: This is SATELLITE DEBRIS
Your satellite tracking list
Your tracking list is empty




NASA's NSSDC Master Catalog

Two Line Element Set (TLE):
1 43660U 18081D   25196.59862361  .00000090  00000-0  10760-3 0  9996
2 43660  99.1445 226.0871 0013161 185.3557 174.7463 13.90480329341138
Source of the keplerian elements: AFSPC